Regional Weather Roundup
Issued by NWS

Home | Current Version | Previous Version | Graphics & Text | Print | Product List | Glossary On
Versions: 1 2 3 4 5 6 7 8 9 10 11 12 13 14 15 16 17 18 19 20 21 22 23 24 25 26 27 28 29 30 31 32 33 34 35 36 37 38 39 40 41 42 43 44 45 46 47 48 49 50
000
ASUS43 KIND 182159
RWRIN

WEATHER ROUNDUP FOR INDIANA
NATIONAL WEATHER SERVICE INDIANAPOLIS IN
500 PM EST WED JAN 18 2017

NOTE: "FAIR" INDICATES FEW OR NO CLOUDS BELOW 12,000 FEET WITH NO
SIGNIFICANT WEATHER AND/OR OBSTRUCTIONS TO VISIBILITY.

* - STATION DOES NOT REPORT WEATHER SUCH AS PRECIPITATION OR FOG.

+ - STATION NOT QUALITY CONTROLLED BY THE NATIONAL WEATHER SERVICE.
    USE DATA WITH CAUTION...ESPECIALLY DEWPOINT AND RELATIVE
    HUMIDITY OBSERVATIONS.

INZ001>003-010>013-019-020-182300-
NORTHWEST INDIANA

CITY           SKY/WX    TMP DP  RH WIND       PRES   REMARKS
GARY /AIRPORT/ MOCLDY    39  32  75 SW12      30.08S
KNOX *+        CLOUDY    34  23  64 SW7       30.08F WCI  28
MONTICELLO +   CLOUDY    36  34  91 SW9       30.10S

$$

LMZ046-743>745-182300-
SOUTHERN LAKE MICHIGAN

STATION/POSITION TIME  TEMP    WIND        PRES    WAVE
                       AIR SEA DIR/SP/G            HT
                 (UTC) (F)     (DEG/KT/KT) (MB)    (FT)
BURNS HARBOR     2140   38     200/  9/ 12 1019.0S

$$

INZ004-005-014>016-021>024-182300-
NORTH CENTRAL INDIANA

CITY           SKY/WX    TMP DP  RH WIND       PRES   REMARKS
ELKHART        CLOUDY    34  32  93 SW10      30.09R WCI  26
GOSHEN         CLOUDY    34  31  88 SW10      30.09  WCI  26
SOUTH BEND     CLOUDY    33  33 100 SW9       30.09S FOG     WCI  25

$$

INZ006>009-017-018-025>027-182300-
NORTHEAST INDIANA

CITY           SKY/WX    TMP DP  RH WIND       PRES   REMARKS
ANGOLA *+      CLOUDY    34  34 100 W12       30.07R WCI  25
FORT WAYNE     CLOUDY    36  33  89 W12       30.10S
KENDALLVILLE + CLOUDY    34  34 100 SW10      30.08S FOG     WCI  26

$$

INZ028-029-035-036-043>045-051>053-182300-
WEST CENTRAL INDIANA

CITY           SKY/WX    TMP DP  RH WIND       PRES   REMARKS
CRAWFORDSVL +  CLOUDY    35  35 100 S10       30.11F WCI  27
LAFAYETTE      CLOUDY    37  34  89 SW7       30.12R
TERRE HAUTE    CLOUDY    39  33  79 SW13      30.14F

$$

INZ030>032-037>040-046>048-054>057-064-065-182300-
CENTRAL INDIANA

CITY           SKY/WX    TMP DP  RH WIND       PRES   REMARKS
CP ATTERBURY + CLOUDY    39  36  87 SW6       30.13F
COLUMBUS       CLOUDY    39  39 100 SW6       30.14
INDIANAPOLIS   CLOUDY    38  35  89 SW9       30.12S
-EAGLE CREEK   CLOUDY    38  34  85 VRB7      30.11S
KOKOMO +       CLOUDY    36  35  96 SW13      30.12R
MT COMFORT *+  CLOUDY    37  36  93 SW10      30.12S
SHELBYVILLE    CLOUDY    40  36  86 SW12      30.12F

$$

INZ033-034-041-042-049-050-058-059-182300-
EAST CENTRAL INDIANA

CITY           SKY/WX    TMP DP  RH WIND       PRES   REMARKS
MUNCIE         CLOUDY    38  35  89 W7        30.11R

$$

INZ060-061-067>069-081>083-085>088-182300-
SOUTHWEST INDIANA

CITY           SKY/WX    TMP DP  RH WIND       PRES   REMARKS
EVANSVILLE     PTCLDY    44  35  70 S6        30.16S
HUNTINGBURG *+ CLOUDY    42  36  79 CALM      30.17R

$$

INZ062-063-066-070>080-084-089>092-182300-
SOUTH CENTRAL AND SOUTHEAST INDIANA

CITY           SKY/WX    TMP DP  RH WIND       PRES   REMARKS
BLOOMINGTON    CLOUDY    39  34  82 S8        30.13F
MADISON *+     CLOUDY    41  36  81 SW6       30.16F
SEYMOUR +      CLOUDY    41  37  87 SW5       30.15F

$$





USA.gov is the U.S. government's official web portal to all federal, state and local government web resources and services.